This demonstration page uses our WeatherBlox Daily Observations layout. Learn more.

38.89511, -77.03637

Hourly Observations for September 23, 2016

Temp ( °F °C ) Dew Point ( °F °C ) Humidity (%) Winds ( mph kmh ) Pressure ( in mb ) Visibility ( mi km ) Precip ( " mm )
12:52 am 00:52 Mostly Clear 72 22.2 64 17.8 76 76 Calm 30.07 1018 10 16.0934 0 0
1:52 am 01:52 Partly Cloudy 70 21.1 65 18.3 84 84 Calm 30.07 1018 10 16.0934 0 0
2:52 am 02:52 Mostly Clear 68 20 64 17.8 87 87 N 7 11 30.07 1018 10 16.0934 0 0
3:52 am 03:52 Mostly Clear 68 20 64 17.8 87 87 N 3 6 30.06 1018 10 16.0934 0 0
4:52 am 04:52 Partly Cloudy 68 20 64 17.8 87 87 Calm 30.05 1018 10 16.0934 0 0
5:52 am 05:52 Partly Cloudy 67 19.4 63 17.2 87 87 N 3 6 30.05 1018 10 16.0934 0 0
6:52 am 06:52 Partly Cloudy 67 19.4 64 17.8 91 91 N 3 6 30.06 1018 10 16.0934 0 0
7:52 am 07:52 Partly Cloudy 69 20.6 65 18.3 87 87 NNE 5 7 30.08 1019 10 16.0934 0 0
8:52 am 08:52 Partly Cloudy 72 22.2 65 18.3 79 79 NE 3 6 30.08 1019 10 16.0934 0 0
9:52 am 09:52 Partly Cloudy 74 23.3 64 17.8 71 71 E 5 7 30.08 1019 10 16.0934 0 0
10:52 am 10:52 Partly Cloudy 78 25.6 61 16.1 56 56 ESE 5 7 30.07 1018 10 16.0934 0 0
11:52 am 11:52 Mostly Sunny 81 27.2 64 17.8 57 57 ESE 5 7 30.05 1018 10 16.0934 0 0
12:52 pm 12:52 Mostly Sunny 84 28.9 64 17.8 51 51 SE 6 9 30.03 1017 10 16.0934 0 0
1:52 pm 13:52 Sunny 85 29.4 61 16.1 45 45 SE 5 7 30.01 1016 10 16.0934 0 0
2:52 pm 14:52 Sunny 87 30.6 63 17.2 45 45 S 7 11 29.98 1015 10 16.0934 0 0
3:52 pm 15:52 Sunny 88 31.1 60 15.6 39 39 Calm 29.97 1015 10 16.0934 0 0
4:52 pm 16:52 Sunny 87 30.6 63 17.2 45 45 S 9 15 29.96 1015 10 16.0934 0 0
5:52 pm 17:52 Sunny 85 29.4 65 18.3 51 51 S 9 15 29.96 1015 10 16.0934 0 0
6:52 pm 18:52 Mostly Sunny 83 28.3 65 18.3 55 55 S 8 13 29.97 1015 10 16.0934 0 0
7:52 pm 19:52 Clear 82 27.8 64 17.8 55 55 SW 7 11 29.97 1015 10 16.0934 0 0
8:52 pm 20:52 Clear 78 25.6 71 21.7 79 79 SSE 3 6 29.98 1015 10 16.0934 0 0
9:52 pm 21:52 Clear 77 25 70 21.1 79 79 S 7 11 29.99 1016 10 16.0934 0 0
10:52 pm 22:52 Clear 75 23.9 69 20.6 82 82 S 7 11 30 1016 10 16.0934 0 0
11:52 pm 23:52 Clear 75 23.9 68 20 79 79 S 5 7 30.01 1016 10 16.0934 0 0

Powered by AerisWeather